Weather History for KAPC - May, 2014

Change the Weather History Date:

Thursday, May 15, 2014

  Actual Average Record
Temperature  
Mean Temperature 67 °F 59 °F  
Max Temperature 89 °F 72 °F 101 °F (2008)
Min Temperature 45 °F 45 °F 34 °F (1917)
Degree Days  
Heating Degree Days 0    
Month to date heating degree days 74  
Since 1 July heating degree days 2819  
Cooling Degree Days 2    
Month to date cooling degree days 9  
Year to date cooling degree days 10  
Growing Degree Days 17 (Base 50)    
Moisture  
Dew Point 44 °F    
Average Humidity 53    
Maximum Humidity 86    
Minimum Humidity 20    
Precipitation  
Precipitation 0.00 in - 1.00 in (1957)
Month to date precipitation T  
Year to date precipitation 8.14  
Since 1 July precipitation 10.34  
Sea Level Pressure  
Sea Level Pressure 30.04 in    
Wind  
Wind Speed 7 mph (WSW)    
Max Wind Speed 21 mph    
Max Gust Speed 26 mph    
Visibility 10 miles    
Events      
T = Trace of Precipitation, MM = Missing Value Source: NWS Daily Summary

Daily Weather History Graph

Daily Weather History Graph

Search for Another Location

Airport or City:

Trip Planner

Search our weather history database for the weather conditions in past years. The results will help you decide how hot, cold, wet, or windy it might be!

Date:

Astronomy

May. 15, 2014 Rise Set
Actual Time 5:58 AM PDT 8:13 PM PDT
Civil Twilight 5:28 AM PDT 8:43 PM PDT
Nautical Twilight 4:52 AM PDT 9:19 PM PDT
Astronomical Twilight 4:12 AM PDT 9:59 PM PDT
Moon 9:26 PM PDT (5/15) 6:49 AM PDT (5/15)
Length of Visible Light 15h 14m
Length of Day
14h 15m
Full, 99% of the Moon is Illuminated
May 15
Full
May 21
Last Quarter
May 28
New
Jun 5
First Quarter
Jun 12
Full

Hourly Weather History & Observations

Time (PDT) Temp. Dew Point Humidity Pressure Visibility Wind Dir Wind Speed Gust Speed Precip Events Conditions
12:54 AM 54.0 °F 43.0 °F 66% 30.04 in 10.0 mi SSE 5.8 mph - N/A   Clear
1:54 AM 53.1 °F 44.1 °F 71% 30.04 in 10.0 mi SSE 3.5 mph - N/A   Clear
2:54 AM 48.0 °F 44.1 °F 86% 30.04 in 10.0 mi Calm Calm - N/A   Clear
3:54 AM 46.9 °F 43.0 °F 86% 30.03 in 10.0 mi Calm Calm - N/A   Clear
4:54 AM 46.9 °F 43.0 °F 86% 30.03 in 10.0 mi Calm Calm - N/A   Clear
5:54 AM 48.9 °F 42.1 °F 77% 30.04 in 10.0 mi North 4.6 mph - N/A   Clear
6:54 AM 51.1 °F 44.1 °F 77% 30.06 in 10.0 mi North 3.5 mph - N/A   Clear
7:54 AM 61.0 °F 46.9 °F 60% 30.06 in 10.0 mi NNW 4.6 mph - N/A   Clear
8:54 AM 68.0 °F 46.9 °F 47% 30.07 in 10.0 mi Calm Calm - N/A   Clear
9:54 AM 72.0 °F 45.0 °F 38% 30.08 in 10.0 mi SW 4.6 mph - N/A   Clear
10:54 AM 77.0 °F 46.0 °F 33% 30.07 in 10.0 mi Variable 4.6 mph - N/A   Clear
12:54 PM 84.9 °F 50.0 °F 30% 30.04 in 10.0 mi South 5.8 mph - N/A   Clear
1:54 PM 87.1 °F 51.1 °F 29% 30.03 in 10.0 mi West 9.2 mph - N/A   Clear
2:54 PM 88.0 °F 41.0 °F 19% 30.02 in 10.0 mi West 12.7 mph - N/A   Clear
3:54 PM 84.0 °F 43.0 °F 24% 30.01 in 10.0 mi West 18.4 mph - N/A   Clear
4:54 PM 81.0 °F 42.1 °F 25% 30.01 in 10.0 mi West 18.4 mph - N/A   Clear
5:54 PM 79.0 °F 43.0 °F 28% 30.00 in 10.0 mi West 16.1 mph 21.9 mph N/A   Clear
6:54 PM 73.0 °F 43.0 °F 34% 30.01 in 10.0 mi WNW 6.9 mph - N/A   Clear
7:54 PM 69.1 °F 42.1 °F 38% 30.02 in 10.0 mi Calm Calm - N/A   Clear
8:54 PM 66.0 °F 41.0 °F 40% 30.02 in 10.0 mi SW 11.5 mph - N/A   Clear
9:54 PM 59.0 °F 45.0 °F 60% 30.04 in 10.0 mi South 9.2 mph - N/A   Clear
10:54 PM 60.1 °F 44.1 °F 55% 30.04 in 10.0 mi SW 12.7 mph - N/A   Clear
11:54 PM 57.9 °F 44.1 °F 60% 30.04 in 10.0 mi SW 5.8 mph - N/A   Clear